Time,TemperatureF,DewpointF,PressureIn,WindDirection,WindDirectionDegrees,WindSpeedMPH,WindSpeedGustMPH,Humidity,HourlyPrecipIn,Conditions,Clouds,dailyrainin,SoftwareType,DateUTC
2013-05-07 00:01:00,48.9,47.3,30.21,North,9,2.0,6.0,94,0.00,,,0.00,meteohub,2013-05-07 04:01:00,
2013-05-07 00:02:00,48.9,47.3,30.21,North,10,5.0,6.0,94,0.00,,,0.00,meteohub,2013-05-07 04:02:00,
2013-05-07 00:07:00,48.9,47.3,30.21,North,10,4.0,6.0,94,0.00,,,0.00,meteohub,2013-05-07 04:07:00,
2013-05-07 00:12:00,48.9,47.3,30.21,North,10,3.0,6.0,94,0.00,,,0.00,meteohub,2013-05-07 04:12:00,
2013-05-07 00:17:00,48.6,46.9,30.21,North,10,3.0,7.0,94,0.00,,,0.00,meteohub,2013-05-07 04:17:00,
2013-05-07 00:22:00,48.0,46.4,30.21,North,5,5.0,7.0,94,0.00,,,0.00,meteohub,2013-05-07 04:22:00,
2013-05-07 00:27:00,47.7,46.0,30.21,North,5,5.0,5.0,94,0.00,,,0.00,meteohub,2013-05-07 04:27:00,
2013-05-07 00:32:00,47.1,45.5,30.21,North,5,5.0,5.0,94,0.00,,,0.00,meteohub,2013-05-07 04:32:00,
2013-05-07 00:37:00,46.9,45.3,30.20,North,5,4.0,6.0,94,0.00,,,0.00,meteohub,2013-05-07 04:37:00,
2013-05-07 00:42:00,47.1,45.7,30.20,North,355,5.0,6.0,95,0.00,,,0.00,meteohub,2013-05-07 04:42:00,
2013-05-07 00:47:00,47.5,46.0,30.20,North,355,3.0,7.0,95,0.00,,,0.00,meteohub,2013-05-07 04:47:00,
2013-05-07 00:52:00,47.7,46.2,30.20,North,5,5.0,7.0,95,0.00,,,0.00,meteohub,2013-05-07 04:52:00,
2013-05-07 00:57:00,48.0,46.6,30.19,North,9,5.0,8.0,95,0.00,,,0.00,meteohub,2013-05-07 04:57:00,
2013-05-07 01:02:00,48.2,46.8,30.19,North,5,6.0,8.0,95,0.00,,,0.00,meteohub,2013-05-07 05:02:00,
2013-05-07 01:07:00,48.0,46.6,30.19,North,9,4.0,8.0,95,0.00,,,0.00,meteohub,2013-05-07 05:07:00,
2013-05-07 01:12:00,48.0,46.6,30.19,North,9,4.0,8.0,95,0.00,,,0.00,meteohub,2013-05-07 05:12:00,
2013-05-07 01:17:00,47.8,46.4,30.20,North,5,2.0,7.0,95,0.00,,,0.00,meteohub,2013-05-07 05:17:00,
2013-05-07 01:22:00,47.8,46.4,30.19,North,5,3.0,7.0,95,0.00,,,0.00,meteohub,2013-05-07 05:22:00,
2013-05-07 01:27:00,47.8,46.4,30.19,North,5,6.0,7.0,95,0.00,,,0.00,meteohub,2013-05-07 05:27:00,
2013-05-07 01:32:00,47.8,46.4,30.19,North,5,5.0,7.0,95,0.00,,,0.00,meteohub,2013-05-07 05:32:00,
2013-05-07 01:37:00,47.7,46.2,30.19,North,0,6.0,8.0,95,0.00,,,0.00,meteohub,2013-05-07 05:37:00,
2013-05-07 01:42:00,47.5,46.0,30.19,North,5,2.0,8.0,95,0.00,,,0.00,meteohub,2013-05-07 05:42:00,
2013-05-07 01:47:00,47.5,46.0,30.19,North,5,5.0,9.0,95,0.00,,,0.00,meteohub,2013-05-07 05:47:00,
2013-05-07 01:52:00,47.5,46.0,30.19,North,5,4.0,9.0,95,0.00,,,0.00,meteohub,2013-05-07 05:52:00,
2013-05-07 01:57:00,47.5,46.0,30.19,North,5,4.0,8.0,95,0.00,,,0.00,meteohub,2013-05-07 05:57:00,
2013-05-07 02:02:00,47.5,46.0,30.19,North,5,5.0,8.0,95,0.00,,,0.00,meteohub,2013-05-07 06:02:00,
2013-05-07 02:07:00,47.7,46.6,30.19,North,5,6.0,7.0,96,0.00,,,0.00,meteohub,2013-05-07 06:07:00,
2013-05-07 02:12:00,47.8,46.8,30.19,North,355,7.0,7.0,96,0.00,,,0.00,meteohub,2013-05-07 06:12:00,
2013-05-07 02:17:00,48.0,46.9,30.19,North,0,5.0,8.0,96,0.00,,,0.00,meteohub,2013-05-07 06:17:00,
2013-05-07 02:22:00,48.4,47.3,30.19,North,0,3.0,8.0,96,0.00,,,0.00,meteohub,2013-05-07 06:22:00,
2013-05-07 02:27:00,48.6,47.5,30.19,North,5,6.0,8.0,96,0.00,,,0.00,meteohub,2013-05-07 06:27:00,
2013-05-07 02:32:00,48.7,47.7,30.18,North,9,3.0,8.0,96,0.00,,,0.00,meteohub,2013-05-07 06:32:00,
2013-05-07 02:37:00,48.7,47.7,30.18,North,11,4.0,9.0,96,0.00,,,0.00,meteohub,2013-05-07 06:37:00,
2013-05-07 02:42:00,48.7,47.7,30.18,North,10,5.0,9.0,96,0.00,,,0.00,meteohub,2013-05-07 06:42:00,
2013-05-07 02:47:00,48.9,47.8,30.18,North,5,5.0,8.0,96,0.00,,,0.00,meteohub,2013-05-07 06:47:00,
2013-05-07 02:52:00,48.9,47.8,30.19,North,9,2.0,8.0,96,0.00,,,0.00,meteohub,2013-05-07 06:52:00,
2013-05-07 02:57:00,48.9,47.8,30.18,North,9,2.0,8.0,96,0.00,,,0.00,meteohub,2013-05-07 06:57:00,
2013-05-07 03:02:00,49.1,48.0,30.18,North,10,5.0,8.0,96,0.00,,,0.00,meteohub,2013-05-07 07:02:00,
2013-05-07 03:07:00,49.1,48.0,30.18,North,11,3.0,8.0,96,0.00,,,0.00,meteohub,2013-05-07 07:07:00,
2013-05-07 03:12:00,49.3,48.2,30.18,NNE,13,4.0,8.0,96,0.00,,,0.00,meteohub,2013-05-07 07:12:00,
2013-05-07 03:17:00,49.1,48.0,30.18,North,10,7.0,7.0,96,0.00,,,0.00,meteohub,2013-05-07 07:17:00,
2013-05-07 03:22:00,49.1,48.0,30.18,NNE,15,5.0,7.0,96,0.00,,,0.00,meteohub,2013-05-07 07:22:00,
2013-05-07 03:27:00,48.9,47.8,30.17,NNE,12,8.0,9.0,96,0.00,,,0.00,meteohub,2013-05-07 07:27:00,
2013-05-07 03:32:00,48.9,47.8,30.17,NNE,25,5.0,9.0,96,0.00,,,0.00,meteohub,2013-05-07 07:32:00,
2013-05-07 03:37:00,48.9,47.8,30.17,NNE,12,7.0,9.0,96,0.00,,,0.00,meteohub,2013-05-07 07:37:00,
2013-05-07 03:42:00,48.7,47.7,30.17,NNE,17,7.0,9.0,96,0.00,,,0.00,meteohub,2013-05-07 07:42:00,
2013-05-07 03:47:00,48.7,47.7,30.17,North,9,3.0,9.0,96,0.00,,,0.00,meteohub,2013-05-07 07:47:00,
2013-05-07 03:52:00,48.6,47.5,30.17,NNW,348,7.0,9.0,96,0.00,,,0.00,meteohub,2013-05-07 07:52:00,
2013-05-07 03:57:00,48.4,47.3,30.17,North,9,4.0,10.0,96,0.00,,,0.00,meteohub,2013-05-07 07:57:00,
2013-05-07 04:02:00,48.2,47.1,30.18,North,5,4.0,10.0,96,0.00,,,0.00,meteohub,2013-05-07 08:02:00,
2013-05-07 04:07:00,48.0,46.9,30.17,North,0,2.0,10.0,96,0.00,,,0.00,meteohub,2013-05-07 08:07:00,
2013-05-07 04:12:00,48.0,46.9,30.18,North,0,1.0,10.0,96,0.00,,,0.00,meteohub,2013-05-07 08:12:00,
2013-05-07 04:17:00,48.2,47.1,30.18,North,0,4.0,7.0,96,0.00,,,0.00,meteohub,2013-05-07 08:17:00,
2013-05-07 04:22:00,48.4,47.3,30.18,North,9,2.0,7.0,96,0.00,,,0.00,meteohub,2013-05-07 08:22:00,
2013-05-07 04:27:00,48.4,47.3,30.18,North,5,5.0,6.0,96,0.00,,,0.00,meteohub,2013-05-07 08:27:00,
2013-05-07 04:32:00,48.6,47.5,30.18,North,5,6.0,6.0,96,0.00,,,0.00,meteohub,2013-05-07 08:32:00,
2013-05-07 04:37:00,48.4,47.3,30.18,North,5,6.0,7.0,96,0.00,,,0.00,meteohub,2013-05-07 08:37:00,
2013-05-07 04:42:00,48.2,47.1,30.18,North,5,7.0,7.0,96,0.00,,,0.00,meteohub,2013-05-07 08:42:00,
2013-05-07 04:47:00,48.0,46.9,30.18,North,5,4.0,9.0,96,0.00,,,0.00,meteohub,2013-05-07 08:47:00,
2013-05-07 04:52:00,48.0,46.9,30.18,North,9,4.0,9.0,96,0.00,,,0.00,meteohub,2013-05-07 08:52:00,
2013-05-07 04:57:00,48.2,47.1,30.18,North,5,3.0,9.0,96,0.00,,,0.00,meteohub,2013-05-07 08:57:00,
2013-05-07 05:02:00,48.4,47.3,30.18,North,9,6.0,9.0,96,0.00,,,0.00,meteohub,2013-05-07 09:02:00,
2013-05-07 05:07:00,48.6,47.5,30.17,North,5,4.0,8.0,96,0.00,,,0.00,meteohub,2013-05-07 09:07:00,
2013-05-07 05:12:00,48.6,47.5,30.17,North,5,5.0,8.0,96,0.00,,,0.00,meteohub,2013-05-07 09:12:00,
2013-05-07 05:17:00,48.2,47.1,30.17,North,0,5.0,8.0,96,0.00,,,0.00,meteohub,2013-05-07 09:17:00,
2013-05-07 05:22:00,48.2,47.1,30.17,North,355,7.0,9.0,96,0.00,,,0.00,meteohub,2013-05-07 09:22:00,
2013-05-07 05:27:00,48.6,47.5,30.17,North,355,6.0,9.0,96,0.00,,,0.00,meteohub,2013-05-07 09:27:00,
2013-05-07 05:32:00,48.6,47.5,30.17,North,355,6.0,8.0,96,0.00,,,0.00,meteohub,2013-05-07 09:32:00,
2013-05-07 05:38:00,48.7,47.7,30.17,North,349,7.0,8.0,96,0.00,,,0.00,meteohub,2013-05-07 09:38:00,
2013-05-07 05:43:00,48.9,47.8,30.17,NNW,347,6.0,9.0,96,0.00,,,0.00,meteohub,2013-05-07 09:43:00,
2013-05-07 05:48:00,48.9,47.8,30.17,NNW,348,6.0,9.0,96,0.00,,,0.00,meteohub,2013-05-07 09:48:00,
2013-05-07 05:53:00,49.5,48.4,30.17,NNW,346,6.0,9.0,96,0.00,,,0.00,meteohub,2013-05-07 09:53:00,
2013-05-07 05:58:00,49.6,48.7,30.18,NNW,348,2.0,9.0,97,0.00,,,0.00,meteohub,2013-05-07 09:58:00,
2013-05-07 06:03:00,50.2,49.3,30.18,NNW,348,1.0,8.0,97,0.00,,,0.00,meteohub,2013-05-07 10:03:00,
2013-05-07 06:08:00,50.5,49.6,30.18,North,355,5.0,8.0,97,0.00,,,0.00,meteohub,2013-05-07 10:08:00,
2013-05-07 06:13:00,50.7,49.8,30.18,North,11,6.0,9.0,97,0.00,,,0.00,meteohub,2013-05-07 10:13:00,
2013-05-07 06:18:00,50.7,49.8,30.18,North,9,4.0,9.0,97,0.00,,,0.00,meteohub,2013-05-07 10:18:00,
2013-05-07 06:23:00,50.9,50.0,30.19,NNE,12,3.0,9.0,97,0.00,,,0.00,meteohub,2013-05-07 10:23:00,
2013-05-07 06:28:00,51.1,50.0,30.18,NNE,12,7.0,-999.0,96,0.00,,,0.00,meteohub,2013-05-07 10:28:00,
2013-05-07 06:33:00,51.1,50.0,30.18,NNE,12,5.0,10.0,96,0.00,,,0.00,meteohub,2013-05-07 10:33:00,
2013-05-07 06:38:00,51.1,50.0,30.18,North,11,3.0,10.0,96,0.00,,,0.00,meteohub,2013-05-07 10:38:00,
2013-05-07 06:43:00,51.3,50.4,30.18,North,5,7.0,8.0,97,0.00,,,0.00,meteohub,2013-05-07 10:43:00,
2013-05-07 06:48:00,51.3,50.4,30.18,North,11,7.0,8.0,97,0.00,,,0.00,meteohub,2013-05-07 10:48:00,
2013-05-07 06:53:00,51.4,50.5,30.18,North,0,8.0,8.0,97,0.00,,,0.00,meteohub,2013-05-07 10:53:00,
2013-05-07 06:58:00,51.8,50.9,30.18,NNE,17,7.0,12.0,97,0.00,,,0.00,meteohub,2013-05-07 10:58:00,
2013-05-07 07:03:00,52.0,51.1,30.18,NNE,15,5.0,12.0,97,0.00,,,0.00,meteohub,2013-05-07 11:03:00,
2013-05-07 07:08:00,52.2,51.3,30.18,North,9,5.0,12.0,97,0.00,,,0.00,meteohub,2013-05-07 11:08:00,
2013-05-07 07:13:00,52.2,51.3,30.19,North,10,0.0,9.0,97,0.00,,,0.00,meteohub,2013-05-07 11:13:00,
2013-05-07 07:18:00,52.3,51.4,30.19,North,10,0.0,9.0,97,0.00,,,0.00,meteohub,2013-05-07 11:18:00,
2013-05-07 07:23:00,52.3,51.4,30.19,North,10,2.0,9.0,97,0.00,,,0.00,meteohub,2013-05-07 11:23:00,
2013-05-07 07:28:00,52.3,51.4,30.19,North,10,5.0,5.0,97,0.00,,,0.00,meteohub,2013-05-07 11:28:00,
2013-05-07 07:33:00,52.5,51.6,30.19,North,10,1.0,3.0,97,0.00,,,0.00,meteohub,2013-05-07 11:33:00,
2013-05-07 07:38:00,52.9,52.0,30.19,North,10,0.0,3.0,97,0.00,,,0.00,meteohub,2013-05-07 11:38:00,
2013-05-07 07:43:00,52.9,52.0,30.19,North,10,0.0,6.0,97,0.00,,,0.00,meteohub,2013-05-07 11:43:00,
2013-05-07 07:48:00,53.1,52.2,30.20,North,10,0.0,6.0,97,0.00,,,0.00,meteohub,2013-05-07 11:48:00,
2013-05-07 07:53:00,53.2,52.3,30.19,North,10,0.0,6.0,97,0.00,,,0.00,meteohub,2013-05-07 11:53:00,
2013-05-07 07:58:00,53.4,52.5,30.19,North,10,1.0,3.0,97,0.00,,,0.00,meteohub,2013-05-07 11:58:00,
2013-05-07 08:03:00,53.8,52.9,30.19,North,10,2.0,3.0,97,0.00,,,0.00,meteohub,2013-05-07 12:03:00,
2013-05-07 08:08:00,54.0,53.1,30.19,North,10,3.0,5.0,97,0.00,,,0.00,meteohub,2013-05-07 12:08:00,
2013-05-07 08:13:00,54.1,53.2,30.19,North,10,1.0,5.0,97,0.00,,,0.00,meteohub,2013-05-07 12:13:00,
2013-05-07 08:18:00,54.1,53.2,30.20,North,10,4.0,5.0,97,0.00,,,0.00,meteohub,2013-05-07 12:18:00,
2013-05-07 08:23:00,54.0,53.1,30.20,NNE,15,3.0,5.0,97,0.00,,,0.00,meteohub,2013-05-07 12:23:00,
2013-05-07 08:28:00,54.0,53.1,30.20,NNE,19,6.0,6.0,97,0.00,,,0.00,meteohub,2013-05-07 12:28:00,
2013-05-07 08:33:00,54.0,53.1,30.20,NE,37,5.0,7.0,97,0.00,,,0.00,meteohub,2013-05-07 12:33:00,
2013-05-07 08:38:00,53.8,52.9,30.21,NE,38,6.0,7.0,97,0.00,,,0.00,meteohub,2013-05-07 12:38:00,
2013-05-07 08:43:00,53.6,52.5,30.21,NE,44,7.0,8.0,96,0.00,,,0.00,meteohub,2013-05-07 12:43:00,
2013-05-07 08:48:00,53.2,52.2,30.21,ENE,66,10.0,10.0,96,0.00,,,0.00,meteohub,2013-05-07 12:48:00,
2013-05-07 08:53:00,53.2,52.3,30.21,NE,55,10.0,11.0,97,0.00,,,0.00,meteohub,2013-05-07 12:53:00,
2013-05-07 08:58:00,53.4,52.5,30.21,NE,44,10.0,11.0,97,0.00,,,0.00,meteohub,2013-05-07 12:58:00,
2013-05-07 09:03:00,53.8,52.9,30.21,NE,45,5.0,12.0,97,0.00,,,0.00,meteohub,2013-05-07 13:03:00,
2013-05-07 09:08:00,53.8,52.9,30.21,ENE,58,11.0,12.0,97,0.00,,,0.00,meteohub,2013-05-07 13:08:00,
2013-05-07 09:13:00,53.4,52.5,30.21,NE,52,11.0,14.0,97,0.00,,,0.00,meteohub,2013-05-07 13:13:00,
2013-05-07 09:18:00,53.8,52.9,30.21,NE,47,8.0,14.0,97,0.00,,,0.00,meteohub,2013-05-07 13:18:00,
2013-05-07 09:23:00,54.1,53.2,30.21,ENE,60,12.0,14.0,97,0.00,,,0.00,meteohub,2013-05-07 13:23:00,
2013-05-07 09:28:00,54.1,53.2,30.21,NE,35,6.0,15.0,97,0.00,,,0.00,meteohub,2013-05-07 13:28:00,
2013-05-07 09:33:00,54.7,53.8,30.22,NE,42,8.0,15.0,97,0.00,,,0.00,meteohub,2013-05-07 13:33:00,
2013-05-07 09:38:00,54.3,53.4,30.22,NE,34,3.0,13.0,97,0.00,,,0.00,meteohub,2013-05-07 13:38:00,
2013-05-07 09:43:00,54.3,53.4,30.21,NNE,28,4.0,13.0,97,0.00,,,0.00,meteohub,2013-05-07 13:43:00,
2013-05-07 09:48:00,54.9,54.0,30.21,NE,34,7.0,10.0,97,0.00,,,0.00,meteohub,2013-05-07 13:48:00,
2013-05-07 09:54:00,55.0,54.1,30.21,NNE,32,4.0,10.0,97,0.00,,,0.00,meteohub,2013-05-07 13:54:00,
2013-05-07 09:59:00,55.4,54.5,30.22,NNE,13,8.0,10.0,97,0.00,,,0.00,meteohub,2013-05-07 13:59:00,
2013-05-07 10:04:00,55.9,55.0,30.22,NNE,18,3.0,10.0,97,0.00,,,0.00,meteohub,2013-05-07 14:04:00,
2013-05-07 10:09:00,56.1,55.2,30.22,NNE,31,5.0,9.0,97,0.00,,,0.00,meteohub,2013-05-07 14:09:00,
2013-05-07 10:14:00,55.9,55.0,30.22,NE,38,4.0,9.0,97,0.00,,,0.00,meteohub,2013-05-07 14:14:00,
2013-05-07 10:19:00,55.8,54.9,30.22,NE,36,5.0,9.0,97,0.00,,,0.00,meteohub,2013-05-07 14:19:00,
2013-05-07 10:24:00,55.2,54.1,30.22,ENE,68,10.0,10.0,96,0.00,,,0.00,meteohub,2013-05-07 14:24:00,
2013-05-07 10:29:00,54.9,53.8,30.22,ENE,60,8.0,9.0,96,0.00,,,0.00,meteohub,2013-05-07 14:29:00,
2013-05-07 10:34:00,54.9,53.8,30.21,NNE,20,8.0,11.0,96,0.00,,,0.00,meteohub,2013-05-07 14:34:00,
2013-05-07 10:39:00,55.8,54.9,30.21,NE,34,8.0,11.0,97,0.00,,,0.00,meteohub,2013-05-07 14:39:00,
2013-05-07 10:44:00,55.2,54.1,30.21,ENE,71,11.0,11.0,96,0.00,,,0.00,meteohub,2013-05-07 14:44:00,
2013-05-07 10:49:00,55.0,54.0,30.21,ENE,61,13.0,13.0,96,0.00,,,0.00,meteohub,2013-05-07 14:49:00,
2013-05-07 10:54:00,55.0,54.0,30.22,ENE,67,11.0,14.0,96,0.00,,,0.00,meteohub,2013-05-07 14:54:00,
2013-05-07 10:59:00,55.0,54.0,30.21,ENE,59,14.0,14.0,96,0.00,,,0.00,meteohub,2013-05-07 14:59:00,
2013-05-07 11:04:00,55.2,54.1,30.21,ENE,65,12.0,15.0,96,0.00,,,0.00,meteohub,2013-05-07 15:04:00,
2013-05-07 11:09:00,55.4,54.3,30.21,ENE,62,12.0,15.0,96,0.00,,,0.00,meteohub,2013-05-07 15:09:00,
2013-05-07 11:14:00,55.2,54.1,30.22,ENE,67,12.0,16.0,96,0.00,,,0.00,meteohub,2013-05-07 15:14:00,
2013-05-07 11:19:00,55.2,54.1,30.21,ENE,63,13.0,16.0,96,0.00,,,0.00,meteohub,2013-05-07 15:19:00,
2013-05-07 11:24:00,55.0,53.6,30.21,NE,56,16.0,16.0,95,0.00,,,0.00,meteohub,2013-05-07 15:24:00,
2013-05-07 11:29:00,54.9,53.8,30.21,ENE,63,15.0,18.0,96,0.00,,,0.00,meteohub,2013-05-07 15:29:00,
2013-05-07 11:34:00,54.9,53.4,30.21,NE,55,15.0,18.0,95,0.00,,,0.00,meteohub,2013-05-07 15:34:00,
2013-05-07 11:39:00,55.0,53.6,30.21,NNE,25,10.0,18.0,95,0.00,,,0.00,meteohub,2013-05-07 15:39:00,
2013-05-07 11:44:00,55.0,53.6,30.21,NE,56,14.0,18.0,95,0.00,,,0.00,meteohub,2013-05-07 15:44:00,
2013-05-07 11:49:00,54.9,53.4,30.21,ENE,62,17.0,18.0,95,0.00,,,0.00,meteohub,2013-05-07 15:49:00,
2013-05-07 11:54:00,54.9,53.4,30.21,ENE,57,14.0,18.0,95,0.00,,,0.00,meteohub,2013-05-07 15:54:00,
2013-05-07 11:59:00,55.0,53.6,30.20,ENE,61,14.0,18.0,95,0.00,,,0.00,meteohub,2013-05-07 15:59:00,
2013-05-07 12:04:00,55.2,53.8,30.21,ENE,73,15.0,18.0,95,0.00,,,0.00,meteohub,2013-05-07 16:04:00,
2013-05-07 12:09:00,55.2,53.8,30.21,ENE,57,14.0,18.0,95,0.00,,,0.00,meteohub,2013-05-07 16:09:00,
2013-05-07 12:14:00,55.8,54.3,30.21,ENE,67,13.0,17.0,95,0.00,,,0.00,meteohub,2013-05-07 16:14:00,
2013-05-07 12:19:00,55.8,54.1,30.21,ENE,76,14.0,17.0,94,0.00,,,0.00,meteohub,2013-05-07 16:19:00,
2013-05-07 12:24:00,55.2,53.6,30.21,East,80,15.0,17.0,94,0.00,,,0.00,meteohub,2013-05-07 16:24:00,
2013-05-07 12:29:00,54.7,53.1,30.21,ENE,78,14.0,17.0,94,0.00,,,0.00,meteohub,2013-05-07 16:29:00,
2013-05-07 12:34:00,54.7,53.1,30.21,ENE,58,12.0,17.0,94,0.00,,,0.00,meteohub,2013-05-07 16:34:00,
2013-05-07 12:39:00,55.0,53.6,30.21,NE,53,15.0,17.0,95,0.00,,,0.00,meteohub,2013-05-07 16:39:00,
2013-05-07 12:44:00,55.2,53.8,30.21,ENE,63,15.0,18.0,95,0.00,,,0.00,meteohub,2013-05-07 16:44:00,
2013-05-07 12:49:00,55.0,53.6,30.21,ENE,67,12.0,18.0,95,0.00,,,0.00,meteohub,2013-05-07 16:49:00,
2013-05-07 12:54:00,55.8,54.3,30.20,ENE,59,13.0,18.0,95,0.00,,,0.00,meteohub,2013-05-07 16:54:00,
2013-05-07 12:59:00,55.8,54.3,30.20,ENE,68,12.0,17.0,95,0.00,,,0.00,meteohub,2013-05-07 16:59:00,
2013-05-07 13:04:00,55.8,54.3,30.20,ENE,65,12.0,17.0,95,0.00,,,0.00,meteohub,2013-05-07 17:04:00,
2013-05-07 13:09:00,55.8,54.3,30.20,NE,55,12.0,17.0,95,0.00,,,0.00,meteohub,2013-05-07 17:09:00,
2013-05-07 13:14:00,56.5,55.0,30.19,NE,36,5.0,17.0,95,0.00,,,0.00,meteohub,2013-05-07 17:14:00,
2013-05-07 13:19:00,56.7,55.2,30.20,ENE,59,11.0,17.0,95,0.00,,,0.00,meteohub,2013-05-07 17:19:00,
2013-05-07 13:24:00,57.0,55.6,30.19,ENE,69,11.0,17.0,95,0.00,,,0.00,meteohub,2013-05-07 17:24:00,
2013-05-07 13:29:00,57.2,55.8,30.19,ENE,70,13.0,13.0,95,0.00,,,0.00,meteohub,2013-05-07 17:29:00,
2013-05-07 13:34:00,57.0,55.2,30.19,ENE,69,13.0,13.0,94,0.00,,,0.00,meteohub,2013-05-07 17:34:00,
2013-05-07 13:39:00,57.0,55.2,30.19,ENE,71,14.0,14.0,94,0.00,,,0.00,meteohub,2013-05-07 17:39:00,
2013-05-07 13:44:00,57.6,55.8,30.19,ENE,58,14.0,15.0,94,0.00,,,0.00,meteohub,2013-05-07 17:44:00,
2013-05-07 13:49:00,57.6,55.8,30.19,ENE,68,11.0,15.0,94,0.00,,,0.00,meteohub,2013-05-07 17:49:00,
2013-05-07 13:54:00,57.9,56.1,30.19,ENE,62,14.0,15.0,94,0.00,,,0.00,meteohub,2013-05-07 17:54:00,
2013-05-07 13:59:00,58.3,56.5,30.19,ENE,62,17.0,17.0,94,0.00,,,0.00,meteohub,2013-05-07 17:59:00,
2013-05-07 14:04:00,57.9,55.9,30.19,ENE,67,15.0,17.0,93,0.00,,,0.00,meteohub,2013-05-07 18:04:00,
2013-05-07 14:09:00,57.6,55.6,30.19,NE,55,13.0,18.0,93,0.00,,,0.00,meteohub,2013-05-07 18:09:00,
2013-05-07 14:14:00,57.4,55.6,30.19,NE,51,14.0,18.0,94,0.00,,,0.00,meteohub,2013-05-07 18:14:00,
2013-05-07 14:19:00,57.4,55.6,30.19,ENE,63,14.0,18.0,94,0.00,,,0.00,meteohub,2013-05-07 18:19:00,
2013-05-07 14:24:00,57.6,55.8,30.18,NE,40,10.0,18.0,94,0.00,,,0.00,meteohub,2013-05-07 18:24:00,
2013-05-07 14:29:00,57.6,55.6,30.18,ENE,61,12.0,18.0,93,0.00,,,0.00,meteohub,2013-05-07 18:29:00,
2013-05-07 14:34:00,57.6,55.8,30.18,ENE,65,13.0,16.0,94,0.00,,,0.00,meteohub,2013-05-07 18:34:00,
2013-05-07 14:39:00,57.0,55.0,30.18,ENE,64,15.0,16.0,93,0.00,,,0.00,meteohub,2013-05-07 18:39:00,
2013-05-07 14:44:00,56.7,54.7,30.18,ENE,67,15.0,18.0,93,0.00,,,0.00,meteohub,2013-05-07 18:44:00,
2013-05-07 14:49:00,56.7,54.7,30.19,ENE,65,15.0,18.0,93,0.00,,,0.00,meteohub,2013-05-07 18:49:00,
2013-05-07 14:54:00,56.5,54.5,30.18,ENE,59,15.0,18.0,93,0.00,,,0.00,meteohub,2013-05-07 18:54:00,
2013-05-07 14:59:00,56.1,54.1,30.18,NE,51,14.0,18.0,93,0.00,,,0.00,meteohub,2013-05-07 18:59:00,
2013-05-07 15:04:00,56.5,54.5,30.18,ENE,61,13.0,18.0,93,0.00,,,0.00,meteohub,2013-05-07 19:04:00,
2013-05-07 15:09:00,56.1,54.1,30.18,ENE,57,14.0,18.0,93,0.00,,,0.00,meteohub,2013-05-07 19:09:00,
2013-05-07 15:14:00,56.5,54.5,30.18,ENE,60,13.0,17.0,93,0.00,,,0.00,meteohub,2013-05-07 19:14:00,
2013-05-07 15:19:00,56.5,54.5,30.18,NE,44,12.0,17.0,93,0.00,,,0.00,meteohub,2013-05-07 19:19:00,
2013-05-07 15:25:00,56.5,54.5,30.18,ENE,59,15.0,17.0,93,0.00,,,0.00,meteohub,2013-05-07 19:25:00,
2013-05-07 15:29:00,56.3,54.0,30.18,NNE,30,9.0,16.0,92,0.00,,,0.00,meteohub,2013-05-07 19:29:00,
2013-05-07 15:35:00,56.7,54.7,30.17,NE,49,10.0,16.0,93,0.00,,,0.00,meteohub,2013-05-07 19:35:00,
2013-05-07 15:40:00,57.0,55.0,30.17,ENE,62,12.0,16.0,93,0.00,,,0.00,meteohub,2013-05-07 19:40:00,
2013-05-07 15:45:00,57.4,55.4,30.17,ENE,67,12.0,16.0,93,0.00,,,0.00,meteohub,2013-05-07 19:45:00,
2013-05-07 15:50:00,57.6,55.6,30.17,ENE,67,13.0,16.0,93,0.00,,,0.00,meteohub,2013-05-07 19:50:00,
2013-05-07 15:55:00,57.7,55.8,30.17,NE,52,11.0,14.0,93,0.00,,,0.00,meteohub,2013-05-07 19:55:00,
2013-05-07 16:00:00,57.7,55.4,30.17,ENE,63,13.0,15.0,92,0.00,,,0.00,meteohub,2013-05-07 20:00:00,
2013-05-07 16:05:00,57.4,55.0,30.17,NE,42,9.0,15.0,92,0.00,,,0.00,meteohub,2013-05-07 20:05:00,
2013-05-07 16:10:00,57.6,55.2,30.17,NE,54,15.0,15.0,92,0.00,,,0.00,meteohub,2013-05-07 20:10:00,
2013-05-07 16:15:00,57.7,55.8,30.16,ENE,62,14.0,15.0,93,0.00,,,0.00,meteohub,2013-05-07 20:15:00,
2013-05-07 16:20:00,57.6,55.2,30.16,ENE,65,14.0,15.0,92,0.00,,,0.00,meteohub,2013-05-07 20:20:00,
2013-05-07 16:25:00,57.7,55.8,30.17,ENE,69,11.0,15.0,93,0.00,,,0.00,meteohub,2013-05-07 20:25:00,
2013-05-07 16:30:00,57.6,55.2,30.16,ENE,57,15.0,17.0,92,0.00,,,0.00,meteohub,2013-05-07 20:30:00,
2013-05-07 16:35:00,57.4,55.0,30.16,ENE,61,14.0,17.0,92,0.00,,,0.00,meteohub,2013-05-07 20:35:00,
2013-05-07 16:40:00,57.6,55.6,30.16,ENE,61,13.0,18.0,93,0.00,,,0.00,meteohub,2013-05-07 20:40:00,
2013-05-07 16:45:00,57.7,55.8,30.16,NE,53,14.0,18.0,93,0.00,,,0.00,meteohub,2013-05-07 20:45:00,
2013-05-07 16:50:00,58.1,56.3,30.16,NE,52,11.0,15.0,94,0.00,,,0.00,meteohub,2013-05-07 20:50:00,
2013-05-07 16:55:00,58.6,56.8,30.16,NE,56,11.0,15.0,94,0.00,,,0.00,meteohub,2013-05-07 20:55:00,
2013-05-07 17:00:00,59.2,57.4,30.16,NE,48,8.0,14.0,94,0.00,,,0.00,meteohub,2013-05-07 21:00:00,
2013-05-07 17:05:00,59.7,57.7,30.16,ENE,67,13.0,14.0,93,0.00,,,0.00,meteohub,2013-05-07 21:05:00,
2013-05-07 17:10:00,59.7,57.7,30.16,ENE,65,14.0,14.0,93,0.00,,,0.00,meteohub,2013-05-07 21:10:00,
2013-05-07 17:15:00,59.4,57.0,30.16,NE,51,14.0,17.0,92,0.00,,,0.00,meteohub,2013-05-07 21:15:00,
2013-05-07 17:20:00,59.4,57.4,30.16,NE,38,7.0,18.0,93,0.00,,,0.00,meteohub,2013-05-07 21:20:00,
2013-05-07 17:25:00,59.5,57.7,30.16,ENE,57,13.0,18.0,94,0.00,,,0.00,meteohub,2013-05-07 21:25:00,
2013-05-07 17:30:00,59.2,57.2,30.16,NE,51,13.0,17.0,93,0.00,,,0.00,meteohub,2013-05-07 21:30:00,
2013-05-07 17:35:00,58.5,56.5,30.16,NE,34,9.0,17.0,93,0.00,,,0.00,meteohub,2013-05-07 21:35:00,
2013-05-07 17:40:00,58.5,56.5,30.16,NE,56,15.0,17.0,93,0.00,,,0.00,meteohub,2013-05-07 21:40:00,
2013-05-07 17:45:00,57.9,55.9,30.16,ENE,61,17.0,17.0,93,0.00,,,0.00,meteohub,2013-05-07 21:45:00,
2013-05-07 17:50:00,57.2,55.2,30.16,NE,53,14.0,20.0,93,0.00,,,0.00,meteohub,2013-05-07 21:50:00,
2013-05-07 17:55:00,57.0,55.2,30.16,NE,53,12.0,20.0,94,0.00,,,0.00,meteohub,2013-05-07 21:55:00,
2013-05-07 18:00:00,57.0,55.2,30.16,NE,40,13.0,20.0,94,0.00,,,0.00,meteohub,2013-05-07 22:00:00,
2013-05-07 18:06:00,57.0,55.2,30.16,NE,49,14.0,20.0,94,0.00,,,0.00,meteohub,2013-05-07 22:06:00,
2013-05-07 18:11:00,56.8,55.4,30.15,NE,47,13.0,20.0,95,0.00,,,0.00,meteohub,2013-05-07 22:11:00,
2013-05-07 18:16:00,57.0,55.2,30.16,NE,48,15.0,20.0,94,0.00,,,0.00,meteohub,2013-05-07 22:16:00,
2013-05-07 18:21:00,57.4,55.9,30.16,NE,43,12.0,18.0,95,0.00,,,0.00,meteohub,2013-05-07 22:21:00,
2013-05-07 18:26:00,57.4,55.6,30.16,NNE,23,10.0,18.0,94,0.00,,,0.00,meteohub,2013-05-07 22:26:00,
2013-05-07 18:31:00,57.7,56.3,30.16,NE,41,11.0,18.0,95,0.00,,,0.00,meteohub,2013-05-07 22:31:00,
2013-05-07 18:36:00,58.1,56.3,30.16,NE,47,10.0,16.0,94,0.00,,,0.00,meteohub,2013-05-07 22:36:00,
2013-05-07 18:41:00,58.5,56.7,30.16,NE,46,12.0,16.0,94,0.00,,,0.00,meteohub,2013-05-07 22:41:00,
2013-05-07 18:46:00,58.6,56.8,30.16,NE,34,10.0,16.0,94,0.00,,,0.00,meteohub,2013-05-07 22:46:00,
2013-05-07 18:51:00,58.8,57.0,30.16,NE,38,10.0,14.0,94,0.00,,,0.00,meteohub,2013-05-07 22:51:00,
2013-05-07 18:56:00,59.2,57.4,30.16,North,355,5.0,14.0,94,0.00,,,0.00,meteohub,2013-05-07 22:56:00,
2013-05-07 19:01:00,59.4,57.6,30.16,NE,46,12.0,14.0,94,0.00,,,0.00,meteohub,2013-05-07 23:01:00,
2013-05-07 19:06:00,59.4,57.4,30.16,NE,40,11.0,14.0,93,0.00,,,0.00,meteohub,2013-05-07 23:06:00,
2013-05-07 19:11:00,59.4,57.4,30.16,NE,53,11.0,14.0,93,0.00,,,0.00,meteohub,2013-05-07 23:11:00,
2013-05-07 19:16:00,59.2,56.8,30.16,NE,51,14.0,17.0,92,0.00,,,0.00,meteohub,2013-05-07 23:16:00,
2013-05-07 19:21:00,58.8,56.8,30.16,NE,49,11.0,17.0,93,0.00,,,0.00,meteohub,2013-05-07 23:21:00,
2013-05-07 19:26:00,58.8,56.8,30.17,ENE,57,10.0,17.0,93,0.00,,,0.00,meteohub,2013-05-07 23:26:00,
2013-05-07 19:31:00,58.6,56.7,30.17,NE,46,13.0,16.0,93,0.00,,,0.00,meteohub,2013-05-07 23:31:00,
2013-05-07 19:36:00,58.6,56.7,30.17,NE,40,12.0,16.0,93,0.00,,,0.00,meteohub,2013-05-07 23:36:00,
2013-05-07 19:41:00,58.1,55.8,30.17,NNE,32,7.0,17.0,92,0.00,,,0.00,meteohub,2013-05-07 23:41:00,
2013-05-07 19:46:00,58.1,56.1,30.17,NNE,15,7.0,17.0,93,0.00,,,0.00,meteohub,2013-05-07 23:46:00,
2013-05-07 19:51:00,58.1,56.1,30.17,NE,36,9.0,17.0,93,0.00,,,0.00,meteohub,2013-05-07 23:51:00,
2013-05-07 19:56:00,58.3,56.3,30.17,NNE,30,3.0,17.0,93,0.00,,,0.00,meteohub,2013-05-07 23:56:00,
2013-05-07 20:01:00,58.5,56.5,30.17,ENE,74,5.0,17.0,93,0.00,,,0.00,meteohub,2013-05-08 00:01:00,
2013-05-07 20:06:00,58.5,56.5,30.17,NNE,20,5.0,12.0,93,0.00,,,0.00,meteohub,2013-05-08 00:06:00,
2013-05-07 20:11:00,58.5,56.5,30.17,NE,34,8.0,12.0,93,0.00,,,0.00,meteohub,2013-05-08 00:11:00,
2013-05-07 20:16:00,58.5,56.1,30.17,NNE,31,9.0,12.0,92,0.00,,,0.00,meteohub,2013-05-08 00:16:00,
2013-05-07 20:21:00,58.3,55.9,30.17,North,5,9.0,12.0,92,0.00,,,0.00,meteohub,2013-05-08 00:21:00,
2013-05-07 20:26:00,58.1,55.8,30.17,NE,44,13.0,14.0,92,0.00,,,0.00,meteohub,2013-05-08 00:26:00,
2013-05-07 20:31:00,58.5,56.5,30.17,NE,36,9.0,14.0,93,0.00,,,0.00,meteohub,2013-05-08 00:31:00,
2013-05-07 20:36:00,58.5,56.1,30.17,NNE,31,8.0,17.0,92,0.00,,,0.00,meteohub,2013-05-08 00:36:00,
2013-05-07 20:41:00,58.6,56.7,30.17,NE,37,7.0,17.0,93,0.00,,,0.00,meteohub,2013-05-08 00:41:00,
2013-05-07 20:46:00,58.6,56.3,30.17,NE,40,7.0,15.0,92,0.00,,,0.00,meteohub,2013-05-08 00:46:00,
2013-05-07 20:51:00,58.6,56.3,30.17,East,94,5.0,15.0,92,0.00,,,0.00,meteohub,2013-05-08 00:51:00,
2013-05-07 20:57:00,58.6,56.3,30.17,NNE,32,8.0,13.0,92,0.00,,,0.00,meteohub,2013-05-08 00:57:00,
2013-05-07 21:02:00,58.6,56.3,30.17,NE,42,8.0,13.0,92,0.00,,,0.00,meteohub,2013-05-08 01:02:00,
2013-05-07 21:07:00,58.6,56.3,30.17,ENE,65,10.0,13.0,92,0.00,,,0.00,meteohub,2013-05-08 01:07:00,
2013-05-07 21:12:00,58.8,56.8,30.18,NNE,21,4.0,13.0,93,0.00,,,0.00,meteohub,2013-05-08 01:12:00,
2013-05-07 21:17:00,58.8,56.5,30.18,NE,42,10.0,13.0,92,0.00,,,0.00,meteohub,2013-05-08 01:17:00,
2013-05-07 21:22:00,58.8,56.5,30.18,NE,38,7.0,13.0,92,0.00,,,0.00,meteohub,2013-05-08 01:22:00,
2013-05-07 21:27:00,58.8,56.5,30.18,NE,35,8.0,16.0,92,0.00,,,0.00,meteohub,2013-05-08 01:27:00,
2013-05-07 21:32:00,58.8,56.8,30.18,NNE,22,7.0,16.0,93,0.00,,,0.00,meteohub,2013-05-08 01:32:00,
2013-05-07 21:37:00,58.8,56.5,30.18,NNE,19,7.0,14.0,92,0.00,,,0.00,meteohub,2013-05-08 01:37:00,
2013-05-07 21:42:00,59.0,56.7,30.18,NNE,17,7.0,14.0,92,0.00,,,0.00,meteohub,2013-05-08 01:42:00,
2013-05-07 21:47:00,58.8,56.5,30.18,NE,38,8.0,16.0,92,0.00,,,0.00,meteohub,2013-05-08 01:47:00,
2013-05-07 21:52:00,58.8,56.5,30.19,NE,49,13.0,16.0,92,0.00,,,0.00,meteohub,2013-05-08 01:52:00,
2013-05-07 21:57:00,58.6,56.3,30.19,NE,54,13.0,17.0,92,0.00,,,0.00,meteohub,2013-05-08 01:57:00,
2013-05-07 22:02:00,58.6,56.7,30.19,NNE,25,9.0,17.0,93,0.00,,,0.00,meteohub,2013-05-08 02:02:00,
2013-05-07 22:07:00,58.6,56.7,30.19,NE,49,11.0,17.0,93,0.00,,,0.00,meteohub,2013-05-08 02:07:00,
2013-05-07 22:12:00,58.6,56.7,30.19,NE,51,12.0,17.0,93,0.00,,,0.00,meteohub,2013-05-08 02:12:00,
2013-05-07 22:17:00,58.6,56.7,30.19,NE,49,10.0,15.0,93,0.00,,,0.00,meteohub,2013-05-08 02:17:00,
2013-05-07 22:22:00,58.5,56.5,30.18,NNE,25,8.0,15.0,93,0.00,,,0.00,meteohub,2013-05-08 02:22:00,
2013-05-07 22:27:00,58.6,56.7,30.18,NE,50,13.0,16.0,93,0.00,,,0.00,meteohub,2013-05-08 02:27:00,
2013-05-07 22:32:00,58.8,56.8,30.18,NE,41,9.0,16.0,93,0.00,,,0.00,meteohub,2013-05-08 02:32:00,
2013-05-07 22:37:00,58.8,56.8,30.18,NE,38,6.0,15.0,93,0.00,,,0.00,meteohub,2013-05-08 02:37:00,
2013-05-07 22:42:00,58.8,56.8,30.18,NNE,13,7.0,15.0,93,0.00,,,0.00,meteohub,2013-05-08 02:42:00,
2013-05-07 22:47:00,59.0,57.0,30.18,NNE,32,7.0,12.0,93,0.00,,,0.00,meteohub,2013-05-08 02:47:00,
2013-05-07 22:52:00,59.2,57.2,30.18,NE,51,14.0,14.0,93,0.00,,,0.00,meteohub,2013-05-08 02:52:00,
2013-05-07 22:57:00,59.4,57.0,30.18,NE,34,11.0,14.0,92,0.00,,,0.00,meteohub,2013-05-08 02:57:00,
2013-05-07 23:02:00,59.2,56.8,30.18,NE,44,13.0,14.0,92,0.00,,,0.00,meteohub,2013-05-08 03:02:00,
2013-05-07 23:07:00,59.0,56.7,30.18,NE,47,12.0,18.0,92,0.00,,,0.00,meteohub,2013-05-08 03:07:00,
2013-05-07 23:12:00,59.0,56.7,30.17,NE,41,12.0,18.0,92,0.00,,,0.00,meteohub,2013-05-08 03:12:00,
2013-05-07 23:17:00,59.0,56.7,30.18,NE,49,14.0,18.0,92,0.00,,,0.00,meteohub,2013-05-08 03:17:00,
2013-05-07 23:22:00,58.8,56.5,30.18,ENE,63,15.0,18.0,92,0.00,,,0.00,meteohub,2013-05-08 03:22:00,
2013-05-07 23:27:00,58.8,56.8,30.17,NE,49,13.0,18.0,93,0.00,,,0.00,meteohub,2013-05-08 03:27:00,
2013-05-07 23:32:00,59.0,57.0,30.17,North,11,9.0,18.0,93,0.00,,,0.00,meteohub,2013-05-08 03:32:00,
2013-05-07 23:37:00,59.2,57.2,30.17,NE,40,11.0,17.0,93,0.00,,,0.00,meteohub,2013-05-08 03:37:00,
2013-05-07 23:42:00,59.0,57.0,30.17,NE,55,12.0,17.0,93,0.00,,,0.00,meteohub,2013-05-08 03:42:00,
2013-05-07 23:47:00,59.2,57.2,30.17,NE,49,13.0,17.0,93,0.00,,,0.00,meteohub,2013-05-08 03:47:00,
2013-05-07 23:52:00,59.0,57.0,30.17,NNE,30,7.0,17.0,93,0.00,,,0.00,meteohub,2013-05-08 03:52:00,
2013-05-07 23:57:00,58.8,56.8,30.17,NE,44,12.0,17.0,93,0.00,,,0.00,meteohub,2013-05-08 03:57:00,